Dosis diarias (en J/m2) de radiaci�n solar incidente en superficie.
Lugar de muestreo: Estaci�n de Fotobiolog�a Playa Uni�n (EFPU) en Playa Uni�n, Chubut, Argentina (-43.311263, -65.040969).
Datos aportados al Sistema Nacional de Datos del Mar.
Fecha,Dosis PAR,DosisUV-A,DosisUV-B
2002-01-01,10770312.9,1575327.2,41683.9
2002-01-02,8766285.1,1265867.6,31581.7
2002-01-03,13326221.9,1861376.9,47081.0
2002-01-04,9800675.9,1408332.9,36041.5
2002-01-05,11361697.1,1617559.7,41830.3
2002-01-06,9049044.9,1326691.8,34810.8
2002-01-07,11982832.7,1673385.4,44109.7
2002-01-08,12637058.2,1771276.6,44488.3
2002-01-09,12883167.6,1785679.2,46322.3
2002-01-10,10708366.3,1478433.4,37421.7
2002-01-11,12592103.7,1730544.0,44548.8
2002-01-12,9569616.1,1349718.8,34756.4
2002-01-13,11636661.7,1620569.3,40257.9
2002-01-14,11827863.8,1677614.4,43756.5
2002-01-15,12420359.7,1740016.9,45216.0
2002-01-16,12008811.9,1670892.1,42833.9
2002-01-17,10754668.5,1520841.9,37933.1
2002-01-18,12439526.9,1691994.9,43084.6
2002-01-19,9956412.8,1452647.8,38439.4
2002-01-20,12623051.8,1711556.6,43983.9
2002-01-21,11183892.2,1548036.0,40381.8
2002-01-22,5582047.0,873196.6,24446.7
2002-01-23,3444137.1,577070.1,15460.0
2002-01-24,11052705.4,1553079.7,39928.0
2002-01-25,12294714.5,1700754.8,43638.9
2002-01-26,12495502.6,1724524.5,44369.3
2002-01-27,11226569.1,1612857.7,41732.4
2002-01-28,12023012.8,1650462.4,41681.7
2002-01-29,11126015.8,1562211.6,39802.9
2002-01-30,6221801.0,935879.7,24857.4
2002-01-31,7067331.3,1054734.3,27026.3
2002-02-01,11314106.0,1583709.1,42420.1
2002-02-02,11627923.1,1591613.1,41303.1
2002-02-03,8551123.9,1201822.5,31858.0
2002-02-04,11300276.8,1528657.0,38804.8
2002-02-05,11075904.4,1502936.5,40489.2
2002-02-06,11008417.5,1468543.2,37913.4
2002-02-07,10688610.0,1432770.4,37262.3
2002-02-08,9778683.4,1267292.8,32862.1
2002-02-09,10340419.6,1422593.8,35716.1
2002-02-10,8789302.2,1235697.7,31176.0
2002-02-11,9222161.2,1265662.8,31241.0
2002-02-12,10848197.5,1434471.8,35746.5
2002-02-13,8219752.8,1179787.3,31376.5
2002-02-14,10376580.5,1395235.0,34854.0
2002-02-15,10610527.1,1420468.7,35845.0
2002-02-16,9945712.8,1324827.6,34476.2
2002-02-18,9429297.3,1254478.5,30639.6
2002-02-19,9651490.7,1249640.1,30958.3
2002-02-20,9870388.9,1302873.7,32918.6
2002-02-21,9241413.4,1244793.9,31766.2
2002-02-22,9444764.2,1212438.2,29611.3
2002-02-23,8363388.8,1080221.5,25904.1
2002-02-25,3451491.8,481651.6,12790.3
2002-02-27,7101905.7,928136.0,22263.8
2002-02-28,8364466.3,1064635.2,23533.6
2002-03-01,8384193.4,1136881.3,24027.5
2002-03-02,7621423.7,1034011.0,22433.0
2002-03-03,7613280.0,1027863.1,21815.2
2002-03-04,8290089.2,1077997.3,21985.7
2002-03-05,6515497.4,869492.4,18323.1
2002-03-06,8034002.1,1051144.2,21911.7
2002-03-07,7635645.7,991856.8,20153.1
2002-03-08,3136738.2,460412.3,9880.1
2002-03-09,6296880.5,844068.7,17841.8
2002-03-10,7593434.6,974675.4,19313.3
2002-03-11,7597887.2,970361.2,18982.6
2002-03-12,5472399.7,732578.1,14894.2
2002-03-13,3888938.6,572492.7,11662.9
2002-03-14,4351567.4,629851.2,13380.6
2002-03-15,5208875.8,739189.9,16092.8
2002-03-17,5512479.2,782544.2,16368.3
2002-03-18,2163188.7,361403.6,7608.0
2002-03-19,6789256.8,958667.1,19109.5
2002-03-20,6183454.4,879560.3,18285.4
2002-03-21,4449399.1,655108.1,13697.3
2002-03-22,7323465.2,988504.1,19152.3
2002-03-23,5669112.1,826314.5,16685.0
2002-03-24,6618824.3,905312.9,16483.2
2002-03-25,5304611.4,748727.8,13626.8
2002-03-26,5558490.0,762626.6,13456.1
2002-03-27,5842715.4,804390.2,14588.3
2002-03-28,5792496.0,802077.9,15664.1
2002-03-30,4401451.1,654896.9,11321.9
2002-03-31,6347853.8,840615.6,15368.8
2002-04-01,6222240.8,827155.5,16947.8
2002-04-02,5333844.3,709475.4,13735.5
2002-04-03,6062489.6,798258.8,15390.3
2002-04-04,5506772.7,745401.0,14520.3
2002-04-05,5482889.5,732105.3,14271.8
2002-04-06,5660695.0,774076.0,15033.6
2002-04-07,5788060.0,779342.5,14619.9
2002-04-08,4835715.9,677378.7,12928.7
2002-04-09,5741886.0,752628.5,13408.0
2002-04-10,5416599.4,730181.9,13232.9
2002-04-11,4887044.6,671406.6,12382.9
2002-04-12,3799664.4,559128.1,10340.0
2002-04-13,5289981.2,695949.2,12479.0
2002-04-14,4901062.6,663523.9,12241.2
2002-04-15,4648066.6,636360.8,11769.3
2002-04-16,4811958.5,641018.6,11652.7
2002-04-17,4992272.5,656476.3,11454.4
2002-04-18,4913985.1,642699.3,10709.9
2002-04-19,2657866.6,392230.7,6637.1
2002-04-20,4717048.3,615801.1,9922.4
2002-04-21,4088338.6,557148.5,9073.1
2002-04-22,3198500.8,454201.4,7169.0
2002-04-23,4079300.7,541637.5,8851.7
2002-04-24,3452486.4,480255.7,7965.2
2002-04-25,3287745.4,454316.3,7177.9
2002-04-26,3675480.8,494807.3,7792.4
2002-04-27,2181124.0,330971.4,5427.7
2002-04-28,4048971.5,520790.3,8124.2
2002-04-29,4124809.8,525396.6,7879.1
2002-04-30,3078694.9,416625.0,6238.2
2002-05-01,643848.6,109270.2,1626.3
2002-05-02,1230653.7,198876.5,2731.7
2002-05-03,3668276.3,478919.3,6918.3
2002-05-04,1573831.8,259580.1,3981.7
2002-05-05,2917332.0,407519.3,6170.4
2002-05-06,2523849.5,365328.3,5338.1
2002-05-07,1735302.2,273384.3,4318.2
2002-05-08,1827594.8,292886.3,4313.9
2002-05-09,2378089.9,335682.0,4815.6
2002-05-10,2521377.0,349581.0,4849.2
2002-05-11,903993.7,143751.0,1975.2
2002-05-12,1752206.7,279026.6,3816.5
2002-05-13,348119.8,69198.2,242.3
2002-05-14,307804.4,66731.4,275.7
2002-05-15,1073739.8,196215.8,2698.2
2002-05-16,969104.4,166207.0,2301.5
2002-05-17,1012803.6,172792.8,2362.7
2002-05-18,2751241.4,360303.5,4497.3
2002-05-19,2956780.0,362713.8,4188.0
2002-05-20,2350600.1,305807.5,3515.6
2002-05-21,2621196.3,341260.5,4154.2
2002-05-22,1754643.1,253788.5,3049.3
2002-05-23,1061758.6,171495.7,2132.1
2002-05-24,1520345.5,242387.6,3084.5
2002-05-25,557769.8,101174.8,1116.7
2002-05-26,2155083.8,295485.4,3551.3
2002-05-27,2812549.6,339966.5,3730.2
2002-05-28,2741417.7,337752.9,3709.3
2002-05-29,2849362.7,335945.7,3484.9
2002-05-30,2821340.7,334165.3,3497.1
2002-05-31,757084.6,123754.5,1311.2
2002-06-01,1741772.6,247501.1,2623.9
2002-06-03,1298792.9,221218.7,2505.3
2002-06-04,1624640.8,224195.7,2350.2
2002-06-05,2119928.5,274405.6,2829.6
2002-06-06,2436725.7,300974.1,2951.9
2002-06-07,1607888.9,223860.7,2080.6
2002-06-08,2399387.1,296654.5,2977.8
2002-06-09,1628832.6,242410.0,2354.9
2002-06-10,2480522.4,298511.5,2788.2
2002-06-11,2547299.2,296821.6,2797.1
2002-06-12,2525767.0,297682.8,2925.0
2002-06-13,2497880.8,317120.7,3099.7
2002-06-14,2574991.9,315510.5,3208.8
2002-06-15,2422561.3,303538.6,3035.2
2002-06-16,2349076.0,299978.9,2992.9
2002-06-17,1233737.0,186712.4,1922.7
2002-06-18,572514.2,105495.1,1039.2
2002-06-19,1012171.3,157453.0,1682.8
2002-06-20,1428083.6,216556.1,2060.4
2002-06-21,2080139.4,278904.7,2842.5
2002-06-22,2568224.3,308968.5,3162.1
2002-06-23,1332340.8,204538.6,2191.0
2002-06-24,2462063.4,302359.6,3176.6
2002-06-25,1299056.9,204114.4,2334.2
2002-06-26,1140705.4,186494.3,2087.8
2002-06-27,2204493.2,291668.3,3061.0
2002-06-28,1472150.2,230292.0,2271.6
2002-06-29,2428847.2,300936.4,2814.3
2002-07-01,2304421.0,290746.3,2973.0
2002-07-02,2350562.5,298777.2,2998.8
2002-07-03,2470835.8,305004.1,2967.9
2002-07-04,2471100.3,305525.4,3241.8
2002-07-05,2176038.1,291724.9,3042.0
2002-07-06,2366347.2,303299.3,3181.3
2002-07-07,1475654.6,231773.0,2523.0
2002-07-08,2285595.1,304826.6,3339.0
2002-07-09,2646230.6,321295.4,3423.4
2002-07-10,2521876.0,318784.0,3511.7
2002-07-11,1437924.6,229618.8,2665.5
2002-07-12,2064846.5,287932.7,3362.0
2002-07-13,1019264.2,164423.3,1919.2
2002-07-14,1728553.8,261210.1,3038.4
2002-07-15,999754.7,158841.3,1767.2
2002-07-16,2469970.3,318956.2,3342.3
2002-07-17,1886442.3,284907.0,3032.9
2002-07-18,2213132.5,323258.5,3392.5
2002-07-19,975766.2,157439.0,1679.7
2002-07-20,1971009.2,276699.9,3513.7
2002-07-21,2306242.6,316704.3,3734.3
2002-07-22,2835332.6,371135.8,3998.0
2002-07-23,2328840.7,322980.6,3625.1
2002-07-24,2133344.1,291952.5,3211.0
2002-07-25,2886802.2,370414.0,4203.1
2002-07-26,1804359.7,268971.7,3304.8
2002-07-27,2639504.7,359049.0,4460.4
2002-07-28,1325994.0,214380.3,2947.8
2002-07-29,1429618.0,225800.5,2890.2
2002-07-30,3165831.0,406263.5,4936.0
2002-07-31,3399750.1,420412.5,5166.1
2002-08-01,3415435.5,425391.3,5229.0
2002-08-02,2199163.8,321675.3,4094.4
2002-08-03,2004554.6,304538.2,3773.9
2002-08-04,2103513.5,317665.8,4115.3
2002-08-05,3244227.3,435738.7,5732.1
2002-08-06,583346.7,105964.4,1471.7
2002-08-07,1552701.5,224856.3,3014.6
2002-08-08,3031013.7,410249.2,5183.4
2002-08-09,2213535.3,320222.5,4350.5
2002-08-10,2247229.2,339385.9,4688.3
2002-08-11,3871125.6,496379.3,6758.3
2002-08-12,3831173.4,514030.1,6620.1
2002-08-13,2929238.4,420980.2,5810.5
2002-08-14,4243352.5,537157.4,7731.9
2002-08-15,3173945.0,428577.1,7092.9
2002-08-16,1309715.1,216892.7,3650.7
2002-08-17,1213703.7,190513.7,2795.1
2002-08-18,1685440.3,256196.1,4235.6
2002-08-19,515602.9,93771.6,1442.5
2002-08-20,3948722.0,542136.8,8468.2
2002-08-21,3613253.5,501479.9,7983.7
2002-08-22,2973178.0,433677.0,6922.1
2002-08-23,1875648.2,288390.8,4745.8
2002-08-24,2086440.1,325346.8,5147.8
2002-08-25,4783415.8,645218.1,11408.7
2002-08-26,1393528.0,240149.6,4681.5
2002-08-27,1223907.6,212667.4,3763.6
2002-08-28,1041199.6,186064.0,3260.2
2002-08-29,1549276.6,264510.9,4464.5
2002-08-30,3532431.3,529220.1,9050.3
2002-08-31,4180213.2,591636.8,9250.6
2002-09-01,1483096.2,251260.1,2764.7
2002-09-02,4639187.8,657827.9,7452.4
2002-09-03,4326811.5,615895.6,7014.9
2002-09-04,4716445.4,661857.1,7390.2
2002-09-05,2302738.5,351670.6,3875.2
2002-09-06,3809223.3,579487.9,6725.1
2002-09-07,3938292.3,571909.1,6561.4
2002-09-08,3007111.3,441474.3,5271.2
2002-09-09,1922126.6,322332.5,3978.5
2002-09-10,2008786.8,321137.5,4218.5
2002-09-11,1667945.3,305815.3,4292.6
2002-09-12,3376023.5,538918.4,7594.7
2002-09-13,5212973.6,766711.0,9931.0
2002-09-14,2663939.8,433710.6,5880.7
2002-09-15,5161701.7,737354.0,9289.3
2002-09-16,4881457.4,680184.1,8924.3
2002-09-17,6353125.8,881749.4,10246.4
2002-09-18,6842664.3,933562.8,11499.3
2002-09-19,5791745.2,829957.5,10342.1
2002-09-20,6753395.7,936874.7,12823.5
2002-09-21,2999204.0,501280.8,6957.8
2002-09-22,4941422.1,741475.1,10183.7
2002-09-23,5647546.4,816833.4,11336.1
2002-09-24,6946704.7,971365.6,13181.0
2002-09-25,7150542.0,988356.2,13346.3
2002-09-26,7490352.2,1021154.0,13820.1
2002-09-27,3289477.7,509523.7,7065.5
2002-09-28,5139321.7,730474.7,9686.6
2002-09-29,6320671.6,909428.4,12839.6
2002-09-30,6202357.4,893167.2,12762.0
2002-10-01,1606144.4,275942.8,5218.9
2002-10-02,6033451.8,878245.6,17906.7
2002-10-03,5188569.2,770808.2,15914.8
2002-10-04,6833490.0,979398.1,19525.2
2002-10-05,6935569.2,978976.8,18980.6
2002-10-06,7129764.7,1019085.3,19826.4
2002-10-07,8468063.1,1173965.3,22373.0
2002-10-08,8061891.2,1135818.9,23076.6
2002-10-09,7864125.3,1134935.7,22738.8
2002-10-10,5580698.6,856375.2,17817.2
2002-10-11,3053087.5,476184.8,9194.9
2002-10-12,7253216.0,1063116.3,22405.3
2002-10-13,5457734.9,828299.3,17799.7
2002-10-14,8817530.0,1235967.6,25014.8
2002-10-15,7132298.8,1035368.1,22107.9
2002-10-16,8875841.3,1264869.4,25855.3
2002-10-17,6247085.4,945574.7,20133.4
2002-10-18,8741613.4,1255917.8,25254.2
2002-10-19,8467704.7,1230579.7,25226.1
2002-10-20,8119395.3,1176988.4,23883.1
2002-10-21,9010829.4,1272475.1,26042.4
2002-10-22,9262224.4,1304186.8,27696.3
2002-10-23,8351133.7,1209979.4,26938.3
2002-10-24,5574788.0,909545.5,20663.8
2002-10-25,8005477.8,1235601.1,27558.6
2002-10-26,9745596.4,1447299.5,31012.9
2002-10-28,9951600.3,1498709.5,31998.6
2002-10-29,10204268.5,1516716.4,33256.6
2002-10-30,8924482.6,1347602.2,30806.8
2002-10-31,5831687.9,932585.0,21053.8
2002-11-01,8666037.1,1332205.4,31184.1
2002-11-02,8197628.5,1268214.2,29345.1
2002-11-03,7076440.7,1115148.0,25610.6
2002-11-04,10903530.9,1608906.7,37514.5
2002-11-05,10999314.1,1618278.7,37646.2
2002-11-06,8027781.0,1234563.9,29655.2
2002-11-07,10323081.6,1535689.2,34677.4
2002-11-08,10663350.9,1595262.4,37067.1
2002-11-09,6230788.6,1004081.6,23802.5
2002-11-10,9694262.4,1466749.7,32454.0
2002-11-11,6002509.5,963789.3,21653.1
2002-11-12,9302112.0,1399410.2,32017.8
2002-11-13,7125367.1,1098005.6,23974.1
2002-11-14,11476284.2,1664881.2,36886.3
2002-11-15,8261188.8,1283350.4,30211.1
2002-11-16,5819854.8,946050.0,22407.5
2002-11-17,6883687.0,1087876.9,24548.4
2002-11-18,10598102.6,1588230.8,35987.1
2002-11-19,11427188.4,1678632.7,37584.3
2002-11-20,8129717.1,1234610.8,26632.3
2002-11-21,11723413.8,1720270.4,38849.1
2002-11-22,7556646.9,1191361.5,28529.3
2002-11-23,7173833.5,1092373.3,24993.6
2002-11-24,9965355.6,1506212.0,35281.4
2002-11-25,10331511.2,1582930.2,37934.0
2002-11-26,6187266.7,1013107.0,22841.6
2002-11-27,9729352.9,1458330.1,32545.5
2002-11-28,10790474.5,1622574.4,37518.8
2002-11-29,10300372.7,1616629.4,37497.5
2002-11-30,11641021.7,1729529.4,39446.8
2002-12-01,12185143.0,1775651.6,40275.1
2002-12-02,12332487.3,1800898.4,41321.5
2002-12-03,11888584.7,1743894.5,40725.9
2002-12-04,11788406.9,1737045.6,41478.8
2002-12-05,10361167.2,1589750.4,38463.2
2002-12-06,11995793.2,1747194.7,40466.4
2002-12-07,12319846.7,1792811.8,41682.9
2002-12-08,10818085.3,1611247.4,38302.1
2002-12-09,11399095.2,1673483.6,39145.0
2002-12-10,11623794.6,1698947.3,40324.7
2002-12-11,7375594.9,1104730.8,25232.7
2002-12-12,12336949.9,1775128.5,41404.6
2002-12-13,10177845.5,1489801.1,35891.0
2002-12-14,5379785.1,719136.3,16668.3
2002-12-15,7071433.0,1125781.0,27552.4
2002-12-16,12878305.2,1893527.9,44157.3
2002-12-17,11556112.2,1744781.1,41863.2
2002-12-18,7242139.0,1143986.1,28951.2
2002-12-19,12227277.2,1801230.2,41972.5
2002-12-20,11788787.9,1733249.5,40479.4
2002-12-21,7804209.9,1239982.2,30062.1
2002-12-22,9386242.8,1445668.3,33433.9
2002-12-23,10844229.0,1611998.1,38715.5
2002-12-24,11156702.6,1631274.0,37501.1
2002-12-25,10234431.5,1522485.2,36066.5
2002-12-26,9872797.9,1475040.7,34724.5
2002-12-27,11881523.7,1710149.4,39992.6
2002-12-28,12024564.8,1729219.2,40150.5
2002-12-29,11689554.5,1692918.0,39985.2
2002-12-30,9628151.2,1430937.5,33952.1
2002-12-31,11121160.1,1650475.3,39973.3
